Probability
0 0 0 0 0 0 0 0 0 1 2 3 3 3 3 4 4 3 5 8 12 18 26 33 37 38 37 38 41 42 42 41 42 41 38 34 29 27 27 28 29 25 20 19
0 0 0 0 0 0 0 0 0 0 1 3 3 3 3 4 4 3 6 10 15 20 27 32 35 35 35 36 38 39 40 40 41 42 40 36 32 29 28 29 30 26 21 19
0 0 0 0 0 0 0 0 0 0 1 2 3 4 5 6 5 4 6 10 15 20 26 30 32 32 33 34 36 38 38 37 39 41 39 37 35 32 30 31 30 26 22 20
0 0 0 0 0 0 0 0 0 0 0 2 3 3 6 8 8 7 6 8 13 18 23 26 27 29 31 33 36 38 37 36 37 37 36 36 35 31 30 29 28 25 22 20
0 0 0 0 0 0 0 0 0 0 0 1 2 3 5 8 8 7 5 6 10 14 18 21 20 22 25 29 33 36 37 36 34 33 33 34 32 29 26 26 25 24 22 20
0 0 0 0 0 0 0 0 0 0 0 1 1 2 6 7 5 4 3 5 8 10 14 17 17 18 20 23 28 33 34 33 32 29 29 30 30 28 26 24 24 24 23 22
0 0 0 0 0 0 0 0 0 0 0 0 0 2 5 5 3 1 1 4 8 8 11 16 20 20 20 21 26 30 32 32 31 29 26 25 26 27 27 26 25 23 23 23
0 0 0 0 0 0 0 0 0 0 0 0 1 3 5 5 3 1 0 3 8 10 11 16 22 25 24 25 29 32 32 31 31 30 26 24 23 25 28 30 27 24 23 22
0 0 0 0 0 0 0 0 0 1 1 1 2 4 6 5 3 2 2 4 8 11 13 17 23 26 28 30 34 36 36 35 34 32 28 24 22 24 27 29 27 26 25 23
0 0 0 0 0 0 0 0 1 2 2 2 3 4 5 5 3 3 4 5 8 11 15 18 22 27 30 32 36 39 39 38 36 33 30 24 23 26 27 28 28 27 27 26
0 0 0 0 0 0 0 0 1 2 3 3 4 5 5 5 3 2 2 4 7 12 17 20 23 27 31 32 34 38 40 39 36 32 30 27 28 30 30 30 30 30 29 29
1 0 0 0 0 0 0 0 0 1 3 3 4 5 5 6 4 3 3 5 8 12 15 20 24 28 31 32 34 36 38 39 36 31 30 31 33 35 35 34 33 32 31 31
2 2 1 1 0 0 0 0 0 1 3 4 4 5 5 5 5 5 6 8 10 12 14 18 24 30 33 34 34 35 36 37 35 31 31 33 35 38 39 37 36 35 32 30
3 3 3 2 1 0 0 0 0 1 3 5 6 6 5 5 6 7 9 10 10 12 14 18 23 28 32 33 34 34 35 36 36 33 33 34 36 38 39 38 38 37 33 30
3 4 3 2 1 0 0 0 1 2 5 8 9 8 6 7 8 9 10 10 9 10 13 17 22 25 27 29 31 32 34 35 36 34 34 35 36 37 37 37 38 39 35 31
6 6 4 1 1 0 0 1 2 3 6 10 12 10 8 8 10 11 11 10 8 9 11 15 19 23 25 27 28 29 31 32 33 34 34 35 36 36 36 36 37 38 37 35
10 11 8 3 1 0 1 3 3 3 6 10 11 8 7 8 9 10 10 10 9 9 12 16 20 23 25 26 26 27 29 30 31 32 32 34 35 35 35 34 35 38 39 39
13 16 14 7 3 1 3 4 4 4 6 8 9 7 7 8 9 10 12 12 11 12 15 18 21 22 24 25 25 26 28 28 27 28 30 33 35 35 34 33 33 37 40 40
12 16 16 9 4 2 3 4 5 6 9 10 9 8 7 7 8 12 15 14 13 15 18 19 19 20 22 23 24 25 25 24 23 24 27 31 34 34 33 33 33 35 37 36
6 10 12 9 4 3 5 6 6 8 10 11 12 12 11 10 11 14 16 15 16 18 20 19 18 19 21 21 22 23 23 22 22 23 25 30 32 32 33 33 33 33 32 29
3 5 7 6 5 5 7 8 9 11 12 11 12 15 18 18 18 17 17 17 19 21 21 20 20 21 22 22 22 23 22 21 22 23 26 29 31 31 32 32 32 31 28 25
4 5 5 6 7 9 10 12 14 17 17 12 11 13 18 20 19 18 18 19 20 20 20 20 21 22 23 23 23 23 22 21 22 24 26 28 29 28 28 29 29 28 25 23
6 7 7 7 10 12 13 14 16 17 16 12 9 10 12 14 14 14 15 17 18 17 18 19 21 22 23 23 24 24 23 23 23 24 26 26 25 24 24 25 25 25 22 20
6 6 6 6 8 11 12 11 10 10 10 9 8 8 9 10 10 10 11 14 14 15 17 18 19 21 22 23 23 23 23 24 24 25 25 26 24 22 22 22 23 23 21 19
2 2 3 3 4 6 6 5 3 3 4 5 6 7 8 7 7 7 10 11 11 12 14 17 17 18 19 20 21 21 22 23 25 25 24 23 22 21 21 20 19 18 16 15
0 0 1 1 1 2 3 2 1 1 1 2 4 5 6 5 5 7 9 11 11 10 12 14 15 15 16 18 19 19 20 21 23 24 22 20 19 19 20 19 15 11 9 8
Wind_Speed
12 12 12 12 12 13 12 11 10 7 6 5 5 5 3 3 3 4 5 6 7 7 9 9 9 9 9 7 7 7 6 6 4 3 3 3 3 3 3 3 4 4 3 3
12 16 15 12 12 13 11 11 12 8 4 4 5 6 4 5 5 4 3 5 6 8 8 9 10 9 9 8 7 7 6 6 5 3 3 3 3 3 3 2 4 4 4 3
16 12 13 13 12 11 10 11 11 9 5 6 7 6 4 4 3 2 3 4 5 7 9 9 9 9 9 8 8 7 6 6 5 4 3 2 2 2 3 3 3 4 4 3
15 13 11 10 11 10 10 10 10 10 9 7 6 5 3 3 3 3 4 4 4 6 8 9 9 8 9 9 8 7 7 6 5 5 4 4 4 3 3 3 3 4 4 4
12 13 12 11 10 9 10 9 10 11 10 9 7 5 4 3 4 3 4 4 4 6 7 8 9 8 8 8 8 8 7 6 6 5 4 4 3 3 2 3 4 4 3 3
14 13 11 10 10 9 9 9 10 10 10 9 7 5 3 1 2 3 5 5 5 5 6 6 7 8 7 7 7 7 7 7 6 6 5 4 3 3 3 4 4 3 3 3
14 12 11 10 11 8 9 7 7 7 6 6 5 3 2 4 3 3 4 4 5 5 6 6 7 8 7 7 7 7 7 7 7 7 5 5 4 4 4 4 4 4 3 3
10 10 10 9 9 8 9 9 7 8 7 5 5 3 3 6 5 5 5 4 4 3 4 5 6 6 6 6 7 7 7 6 7 7 6 5 5 4 3 4 3 3 3 3
8 9 8 8 8 9 10 9 10 10 11 8 3 1 5 7 5 5 5 4 4 3 4 5 5 5 5 6 6 6 6 6 5 6 6 5 5 5 4 4 4 3 2 3
8 9 9 8 9 10 10 9 6 6 8 8 6 2 0 4 3 3 3 3 4 4 4 4 4 5 5 6 5 5 5 5 5 6 6 6 6 5 4 5 5 3 3 3
8 8 10 8 8 9 9 9 8 7 7 7 6 1 4 3 3 2 2 2 3 3 3 3 3 3 4 5 6 6 5 5 5 5 6 5 5 5 5 4 4 4 3 3
6 6 8 10 9 9 9 9 8 7 7 6 5 1 4 5 4 3 2 3 3 3 3 3 3 3 3 2 3 4 5 5 5 4 4 4 5 5 5 4 4 4 4 4
6 5 8 8 7 7 7 7 8 7 6 6 5 1 3 5 4 4 3 3 4 4 4 3 3 3 2 2 1 2 3 4 4 5 5 4 4 5 5 4 4 4 4 4
5 6 9 10 7 6 7 8 9 8 5 5 4 3 1 2 3 4 4 4 3 4 4 3 3 3 3 2 1 1 1 2 3 4 5 4 4 4 4 4 4 4 4 4
4 8 10 11 9 9 8 9 10 8 7 6 3 1 1 2 3 4 4 4 5 5 4 4 4 4 3 2 2 1 0 1 1 3 4 5 5 4 4 4 4 4 4 5
2 6 10 13 12 11 11 9 9 7 5 4 1 1 3 3 5 5 5 5 5 5 4 4 4 3 3 2 1 1 1 1 1 2 3 4 4 5 5 5 4 4 4 4
5 6 9 12 12 12 10 8 6 3 3 1 1 0 1 3 4 5 5 5 5 5 5 5 4 3 2 2 2 1 1 1 1 2 3 3 4 5 5 6 5 5 4 4
6 7 7 10 10 13 4 4 3 2 0 1 1 2 2 2 2 4 5 5 5 5 5 5 4 3 2 1 2 1 1 0 1 2 3 3 3 4 4 5 5 4 4 4
6 6 7 8 10 9 3 4 5 3 1 4 3 2 2 1 2 5 7 6 5 4 4 3 4 3 2 1 1 1 1 1 2 2 2 3 3 4 4 4 5 5 4 4
7 6 7 9 11 9 3 5 5 2 2 4 3 3 3 3 1 3 6 6 6 4 4 3 3 3 2 1 1 1 1 1 2 2 2 2 2 3 4 4 4 4 4 4
5 7 8 9 9 3 6 7 5 2 1 4 5 5 5 5 4 4 5 5 6 5 5 4 3 3 3 2 1 1 2 2 3 2 3 3 2 3 3 3 3 4 4 4
4 4 4 5 6 2 8 6 5 4 4 5 6 5 5 4 4 4 5 5 5 5 5 4 3 3 2 2 2 2 2 2 3 3 3 3 3 3 3 3 3 4 4 5
2 3 2 1 2 4 6 6 5 4 4 4 3 4 4 3 4 4 4 4 4 4 4 4 4 3 3 3 2 3 3 3 3 3 3 2 3 3 2 3 4 5 5 5
2 3 2 1 3 3 4 5 6 5 4 4 4 3 4 3 4 4 3 3 3 4 3 3 3 4 3 3 3 3 3 3 2 3 3 2 2 3 2 3 4 4 4 5
4 4 3 2 2 3 4 5 5 5 5 5 5 4 4 4 4 4 4 4 3 4 4 3 3 3 4 3 3 3 3 3 3 3 3 3 3 3 3 3 2 3 3 4
4 3 3 3 4 4 2 4 5 5 5 6 6 5 4 4 4 5 5 4 4 4 4 4 4 4 4 4 4 4 3 3 3 3 3 3 3 2 3 3 2 1 2 4
Wind_Direction
231 232 239 243 246 251 261 271 273 258 229 230 243 254 256 243 218 196 184 171 170 160 151 140 138 143 143 146 153 157 158 149 154 159 168 178 173 171 167 162 152 158 173 172
233 235 243 250 254 259 270 283 283 273 228 247 251 257 240 241 237 207 175 159 159 157 147 142 147 149 153 157 159 160 162 159 163 162 167 175 171 176 169 160 148 161 175 171
238 240 239 245 253 258 263 265 274 283 263 250 255 257 234 211 217 169 138 139 153 151 151 153 156 160 159 163 167 168 168 165 167 162 166 167 156 168 158 155 151 165 167 173
248 256 256 250 252 261 268 271 280 285 278 265 259 276 258 186 181 163 134 138 155 157 156 156 158 160 164 169 167 162 163 164 166 170 181 179 177 183 171 157 157 170 171 172
251 254 256 258 259 263 271 283 280 279 275 273 260 253 258 200 155 126 123 131 146 153 155 157 160 161 162 164 165 164 161 166 171 180 182 188 190 181 160 155 157 167 175 181
260 259 256 263 266 263 274 277 276 269 265 261 256 248 237 191 117 128 136 134 140 146 144 154 156 156 158 159 157 159 161 168 175 182 185 194 198 176 166 164 167 177 176 180
247 259 256 250 252 252 263 270 272 265 255 263 255 242 193 150 140 110 116 120 127 138 150 155 157 156 160 163 158 155 163 174 178 183 192 196 197 186 181 179 182 184 181 177
247 249 248 255 260 257 250 247 256 275 277 271 258 230 160 137 123 109 96 88 99 131 147 159 157 153 156 158 154 154 163 177 182 184 191 191 189 188 188 193 193 189 189 177
268 259 253 254 259 260 260 255 263 274 282 287 278 195 139 118 110 109 112 108 110 132 141 145 142 144 152 154 147 154 164 172 182 184 184 188 193 198 191 183 196 199 187 173
274 278 261 249 256 252 261 269 277 274 279 280 269 226 95 131 138 127 117 136 130 114 117 128 131 135 141 147 150 152 155 169 180 187 187 189 193 198 193 191 190 188 186 175
264 274 276 263 240 257 259 263 263 264 265 276 283 339 87 117 103 82 55 57 71 72 89 111 120 129 141 150 157 156 158 166 176 189 192 185 184 191 193 197 189 183 181 181
273 272 278 276 272 272 263 267 267 268 274 277 275 269 99 119 130 108 56 39 47 43 56 79 102 111 125 138 156 158 163 176 184 187 185 185 182 185 191 197 189 181 183 186
306 271 261 255 255 253 266 277 283 282 283 280 274 209 137 133 103 83 53 38 50 46 38 47 75 85 109 121 116 148 165 177 182 182 184 186 190 189 191 191 182 183 186 190
283 269 269 272 283 288 276 288 290 277 268 278 271 202 171 114 92 69 59 46 47 53 41 37 56 65 61 60 60 105 152 170 178 179 182 191 203 195 192 189 184 183 187 192
284 269 271 276 276 276 270 270 272 271 270 264 262 261 24 52 73 70 66 54 49 52 55 46 45 48 46 57 43 355 142 172 188 187 190 195 197 196 193 191 191 188 189 196
267 277 278 271 268 269 273 268 266 272 285 266 273 25 24 29 34 46 54 49 44 37 32 29 28 35 29 29 8 303 251 219 203 214 205 198 194 197 199 196 192 189 193 197
270 274 275 272 270 269 263 271 262 258 306 269 120 64 39 47 39 42 36 37 39 28 19 11 9 19 14 359 340 292 242 209 212 226 215 200 200 197 197 201 195 193 195 199
262 265 267 271 269 264 278 300 286 228 215 337 122 96 76 57 71 66 47 35 34 25 13 0 352 2 4 5 354 344 319 206 229 237 228 202 204 196 189 189 188 195 195 203
226 244 258 265 261 255 258 310 311 295 34 25 59 43 35 26 89 71 39 29 27 24 14 2 354 344 346 352 344 322 298 254 245 241 241 213 208 200 195 194 192 193 196 199
213 221 242 255 261 260 302 325 311 293 160 17 28 38 20 0 359 42 21 13 14 19 21 8 2 355 355 344 343 316 306 292 281 262 252 243 229 204 204 196 192 191 195 199
230 230 238 254 259 256 349 331 318 258 54 23 21 32 42 36 28 9 10 14 9 8 17 15 9 3 357 345 338 321 314 305 296 285 271 254 240 218 205 193 194 192 198 207
275 271 254 260 254 263 357 3 26 29 26 28 26 28 36 39 32 14 9 7 5 2 9 9 5 5 357 349 341 321 308 304 302 293 282 264 238 233 215 195 198 206 205 209
323 343 323 350 65 56 32 51 49 40 25 23 13 10 15 17 10 5 2 2 357 352 1 356 353 353 355 348 338 322 317 313 303 297 279 265 249 237 211 197 204 209 207 210
359 11 10 35 94 70 52 42 33 25 13 356 352 354 358 359 355 355 352 352 355 344 342 342 345 339 333 334 331 318 311 310 305 293 282 254 243 238 226 214 211 211 210 209
333 339 336 346 30 49 54 24 11 359 346 346 340 339 350 345 343 341 339 339 343 331 335 338 338 323 321 327 325 313 315 316 307 299 284 267 251 239 224 230 240 221 215 210
347 340 317 324 339 323 341 353 336 337 341 339 331 332 339 336 334 333 329 333 332 325 327 329 329 321 320 322 319 321 320 310 303 293 288 282 270 245 223 213 228 277 237 191